Location: Biharia
(46.4333°N, 22.8000°E)
Time: 23:51:17
(UTC+00:00)

FENGYUN 1C DEB - Pass Details

Date: 17 August 2022
Orbit: 796 x 915 km, 98.9° (Epoch: 28 September)

Event Time Altitude Azimuth Distance (km) Brightness Sun altitude
Rises 23:36:54 0° 13° (NNE) 3,424 ? -28.7°
Reaches altitude 10° 23:39:19 10° 12° (NNE) 2,467 ? -28.5°
Enters shadow 23:44:30 73° 315° (NW) 861 ? -28.3°
